This is the latest recevied weather packets stored in our database for station/object SQ8NA-15. If no packets are shown the sender has not sent any weather packets the latest 10 day(s).
| Time | Temp. | Humidity | Pressure | Rain* | Wind** | Luminosity | Snow |
|---|---|---|---|---|---|---|---|
| 1787706178 | 15° C | 70% | 981.8 hPa | 0 mm | - | 0 W/m² | - |
| 1787704926 | 15.56° C | 68% | 981.8 hPa | 0 mm | - | 0 W/m² | - |
| 1787704316 | 15.56° C | 67% | 981.9 hPa | 0 mm | - | 0 W/m² | - |
| 1787703665 | 15.56° C | 67% | 981.8 hPa | 0 mm | - | 0 W/m² | - |
| 1787702428 | 15.56° C | 69% | 981.7 hPa | 0 mm | - | 0 W/m² | - |
| 1787701828 | 15.56° C | 69% | 981.8 hPa | 0 mm | - | 0 W/m² | - |
| 1787701227 | 15.56° C | 69% | 981.7 hPa | 0 mm | - | 0 W/m² | - |
| 1787699966 | 15.56° C | 68% | 981.7 hPa | 0 mm | - | 0 W/m² | - |
| 1787699366 | 15.56° C | 67% | 981.7 hPa | 0 mm | - | 0 W/m² | - |
| 1787698766 | 15.56° C | 68% | 981.6 hPa | 0 mm | - | 0 W/m² | - |
| 1787698165 | 16.11° C | 66% | 981.7 hPa | 0 mm | - | 0 W/m² | - |
| 1787696928 | 16.11° C | 65% | 981.7 hPa | 0 mm | - | 0 W/m² | - |
| 1787696327 | 16.11° C | 67% | 981.5 hPa | 0 mm | - | 0 W/m² | - |
| 1787695722 | 16.11° C | 67% | 981.7 hPa | 0 mm | - | 0 W/m² | - |
| 1787693428 | 16.11° C | 65% | 981.9 hPa | 0 mm | - | 0 W/m² | - |
| 1787692828 | 16.11° C | 67% | 982 hPa | 0 mm | - | 0 W/m² | - |
| 1787692215 | 15.56° C | 68% | 982.1 hPa | 0 mm | - | 0 W/m² | - |
| 1787690953 | 16.11° C | 68% | 982.2 hPa | 0 mm | - | 0 W/m² | - |
| 1787690328 | 16.11° C | 69% | 982.1 hPa | 0 mm | - | 0 W/m² | - |
| 1787689702 | 16.11° C | 66% | 982.1 hPa | 0 mm | - | 0 W/m² | - |
| 1787688466 | 16.11° C | 67% | 982.1 hPa | 0 mm | - | 0 W/m² | - |
| 1787687814 | 16.11° C | 69% | 982.2 hPa | 0 mm | - | 0 W/m² | - |
| 1787687204 | 16.11° C | 67% | 982.2 hPa | 0 mm | - | 0 W/m² | - |
| 1787685928 | 16.11° C | 67% | 982.3 hPa | 0 mm | - | 0 W/m² | - |
| 1787685328 | 16.11° C | 69% | 982.2 hPa | 0 mm | - | 0 W/m² | - |
* Rain latest hour (hover to see other rain measurements)
** Current wind speed in m/s (hover to see current wind gust speed)